Weather History for Nome, AK

Change the Weather History Date:

Tuesday, October 15, 2013

  Actual Average Record
Temperature  
Mean Temperature 41 °F 29 °F  
Max Temperature 42 °F 35 °F 50 °F (1969)
Min Temperature 39 °F 23 °F 2 °F (1996)
Degree Days  
Heating Degree Days 24 36  
Month to date heating degree days 439 490  
Since 1 July heating degree days 1959 2020  
Cooling Degree Days 0    
Month to date cooling degree days 0  
Year to date cooling degree days 7  
Moisture  
Dew Point 42 °F    
Average Humidity 0    
Maximum Humidity 0    
Minimum Humidity 0    
Precipitation  
Precipitation 0.42 in 0.05 in 0.87 in (1931)
Month to date precipitation 2.33 0.87  
Year to date precipitation 17.42 13.77  
Snow  
Snow 0.00 in 0.10 in 10.00 in (1931)
Month to date snowfall 0.1 1.4  
Since 1 July snowfall 1.2 2.0  
Since 1 September snowfall 1.2 2.0  
Snow Depth 0.00 in    
Sea Level Pressure  
Sea Level Pressure 29.49 in    
Wind  
Wind Speed 10 mph (ESE)    
Max Wind Speed 15 mph    
Max Gust Speed 21 mph    
Visibility 3 miles    
Events Fog , Rain    
T = Trace of Precipitation, MM = Missing Value Source: NWS Daily Summary

Daily Weather History Graph

Daily Weather History Graph

Search for Another Location

Airport:

Trip Planner

Search our weather history database for the weather conditions in past years. The results will help you decide how hot, cold, wet, or windy it might be!

Date:

Astronomy

Oct. 15, 2013 Rise Set
Actual Time 9:54 AM AKDT 7:38 PM AKDT
Civil Twilight 9:05 AM AKDT 8:28 PM AKDT
Nautical Twilight 8:09 AM AKDT 9:23 PM AKDT
Astronomical Twilight 7:12 AM AKDT 10:20 PM AKDT
Moon 6:41 PM AKDT (10/15) 5:27 AM AKDT (10/15)
Length of Visible Light 11h 22m
Length of Day
9h 43m
Waxing Gibbous, 89% of the Moon is Illuminated
Oct 15
Waxing Gibbous
Oct 18
Full
Oct 26
Last Quarter
Nov 3
New
Nov 9
First Quarter

Hourly Weather History & Observations

Time (AKDT) Temp. Windchill Dew Point Humidity Pressure Visibility Wind Dir Wind Speed Gust Speed Precip Events Conditions
12:53 AM 39.0 °F 32.3 °F 37.0 °F 93% 29.50 in 7.0 mi East 10.4 mph - 0.01 in Rain Light Rain
1:00 AM 39.2 °F 32.0 °F 37.4 °F 93% 29.50 in 8.0 mi East 11.5 mph - 0.00 in Rain Light Rain
1:53 AM 39.0 °F 31.0 °F 37.9 °F 96% 29.48 in 9.0 mi East 13.8 mph - 0.04 in Rain Light Rain
2:13 AM 39.2 °F 31.2 °F 37.4 °F 93% 29.47 in 6.0 mi East 13.8 mph - 0.02 in Rain Light Rain
2:53 AM 39.0 °F 31.4 °F 37.9 °F 96% 29.46 in 8.0 mi East 12.7 mph - 0.03 in Rain Light Rain
3:05 AM 39.2 °F 32.0 °F 39.2 °F 100% 29.45 in 7.0 mi East 11.5 mph - 0.00 in Rain Light Rain
3:13 AM 39.2 °F 32.5 °F 39.2 °F 100% 29.45 in 5.0 mi East 10.4 mph - 0.00 in Rain Light Rain
3:38 AM 39.2 °F 32.5 °F 39.2 °F 100% 29.45 in 2.0 mi East 10.4 mph - 0.01 in Rain Light Rain
3:53 AM 39.9 °F 32.9 °F 39.0 °F 97% 29.44 in 3.0 mi East 11.5 mph - 0.03 in Rain Light Rain
4:18 AM 39.2 °F 32.5 °F 39.2 °F 100% 29.44 in 7.0 mi East 10.4 mph - 0.02 in Rain Light Rain
4:53 AM 42.1 °F 36.1 °F 41.0 °F 96% 29.44 in 3.0 mi SSE 10.4 mph - 0.06 in Rain Light Rain
5:53 AM 42.1 °F 35.2 °F 41.0 °F 96% 29.44 in 6.0 mi SSE 12.7 mph - 0.06 in Rain Light Rain
6:53 AM 42.1 °F 35.2 °F 41.0 °F 96% 29.44 in 9.0 mi SSE 12.7 mph - 0.03 in Rain Light Rain
7:21 AM 42.8 °F 36.6 °F 41.0 °F 93% 29.44 in 7.0 mi SSE 11.5 mph - 0.03 in Rain Light Rain
7:53 AM 42.1 °F 35.2 °F 41.0 °F 96% 29.44 in 8.0 mi SSE 12.7 mph - 0.06 in Rain Light Rain
8:37 AM 42.8 °F 37.0 °F 42.8 °F 100% 29.45 in 2.0 mi SE 10.4 mph - 0.01 in Rain Light Rain
8:50 AM 42.8 °F 36.2 °F 42.8 °F 100% 29.45 in 3.0 mi SE 12.7 mph - 0.02 in Rain Light Rain
8:53 AM 42.1 °F 35.7 °F 42.1 °F 100% 29.45 in 4.0 mi SE 11.5 mph - 0.02 in Rain Light Rain
9:51 AM 42.8 °F 37.0 °F 42.8 °F 100% 29.45 in 1.8 mi SSE 10.4 mph - 0.00 in   Overcast
9:53 AM 42.1 °F 36.1 °F 42.1 °F 100% 29.46 in 1.8 mi SSE 10.4 mph - 0.00 in   Overcast
10:53 AM 42.1 °F 35.7 °F 42.1 °F 100% 29.47 in 1.8 mi SSE 11.5 mph - N/A   Overcast
11:53 AM 42.1 °F 35.7 °F 42.1 °F 100% 29.47 in 1.0 mi SSE 11.5 mph - N/A   Overcast
12:27 PM 42.8 °F 37.5 °F 42.8 °F 100% 29.47 in 2.0 mi SSE 9.2 mph - N/A   Overcast
12:49 PM 42.8 °F 36.6 °F 42.8 °F 100% 29.47 in 3.0 mi SSE 11.5 mph - N/A   Overcast
12:53 PM 42.1 °F 36.1 °F 42.1 °F 100% 29.47 in 3.0 mi SSE 10.4 mph - N/A   Overcast
1:15 PM 42.8 °F 36.6 °F 42.8 °F 100% 29.48 in 1.0 mi SSE 11.5 mph 18.4 mph N/A   Mist
1:18 PM 42.8 °F 37.0 °F 42.8 °F 100% 29.48 in 0.8 mi SSE 10.4 mph - N/A   Mist
1:24 PM 42.8 °F 37.5 °F 42.8 °F 100% 29.48 in 0.5 mi SSE 9.2 mph - N/A Fog Fog
1:53 PM 42.1 °F 36.1 °F 42.1 °F 100% 29.48 in 0.5 mi SSE 10.4 mph - N/A Fog Fog
2:53 PM 42.1 °F 37.1 °F 42.1 °F 100% 29.48 in 0.2 mi SE 8.1 mph - N/A Fog Fog
3:43 PM 42.8 °F 39.3 °F 42.8 °F 100% 29.49 in 1.0 mi SE 5.8 mph - N/A   Mist
3:51 PM 42.8 °F 38.6 °F 42.8 °F 100% 29.49 in 2.0 mi SE 6.9 mph - N/A   Overcast
3:53 PM 42.1 °F 37.7 °F 42.1 °F 100% 29.49 in 2.5 mi SE 6.9 mph - N/A   Overcast
4:00 PM 42.8 °F 38.0 °F 42.8 °F 100% 29.49 in 5.0 mi ESE 8.1 mph - N/A   Overcast
4:16 PM 42.8 °F 38.0 °F 42.8 °F 100% 29.49 in 1.8 mi ESE 8.1 mph - N/A   Overcast
4:26 PM 42.8 °F 37.5 °F 42.8 °F 100% 29.49 in 0.5 mi ESE 9.2 mph - N/A Fog Fog
4:53 PM 42.1 °F 37.1 °F 42.1 °F 100% 29.49 in 0.5 mi ESE 8.1 mph - N/A Fog Fog
5:00 PM 42.8 °F 37.5 °F 42.8 °F 100% 29.49 in 0.8 mi ESE 9.2 mph - N/A   Mist
5:03 PM 42.8 °F 37.5 °F 42.8 °F 100% 29.49 in 1.0 mi ESE 9.2 mph - N/A   Mist
5:45 PM 42.8 °F 37.5 °F 42.8 °F 100% 29.48 in 0.5 mi ESE 9.2 mph - N/A Fog Fog
5:53 PM 42.1 °F 36.6 °F 42.1 °F 100% 29.49 in 0.2 mi ESE 9.2 mph - N/A Fog Fog
6:25 PM 42.8 °F 38.0 °F 42.8 °F 100% 29.49 in 0.2 mi ESE 8.1 mph - 0.00 in Fog Fog
6:35 PM 42.8 °F 38.0 °F 42.8 °F 100% 29.49 in 0.5 mi ESE 8.1 mph - 0.00 in Fog , Rain Light Rain
6:51 PM 42.8 °F 38.0 °F 42.8 °F 100% 29.50 in 0.8 mi ESE 8.1 mph - 0.01 in Rain Light Rain
6:53 PM 42.1 °F 37.1 °F 42.1 °F 100% 29.50 in 0.8 mi ESE 8.1 mph - 0.01 in Rain Light Rain
7:10 PM 42.8 °F 38.0 °F 42.8 °F 100% 29.50 in 1.0 mi ESE 8.1 mph - 0.00 in   Mist
7:32 PM 42.8 °F 38.0 °F 42.8 °F 100% 29.51 in 1.0 mi ESE 8.1 mph - 0.01 in Rain Light Rain
7:53 PM 42.1 °F 37.1 °F 42.1 °F 100% 29.52 in 1.5 mi ESE 8.1 mph - 0.02 in Rain Light Rain
8:23 PM 42.8 °F 38.0 °F 42.8 °F 100% 29.52 in 2.5 mi ESE 8.1 mph - 0.01 in Rain Light Rain
8:51 PM 42.8 °F 38.0 °F 42.8 °F 100% 29.53 in 2.5 mi ESE 8.1 mph - 0.02 in   Overcast
8:53 PM 42.1 °F 37.7 °F 42.1 °F 100% 29.53 in 1.0 mi ESE 6.9 mph - 0.02 in   Mist
9:13 PM 42.8 °F 38.0 °F 42.8 °F 100% 29.54 in 0.8 mi ESE 8.1 mph - N/A   Mist
9:33 PM 42.8 °F 38.0 °F 42.8 °F 100% 29.54 in 0.5 mi ESE 8.1 mph - N/A Fog Fog
9:53 PM 42.1 °F 37.1 °F 42.1 °F 100% 29.55 in 0.5 mi ESE 8.1 mph - N/A Fog Fog
10:00 PM 42.8 °F 37.0 °F 42.8 °F 100% 29.55 in 0.8 mi SE 10.4 mph - N/A   Mist
10:06 PM 42.8 °F 37.5 °F 42.8 °F 100% 29.56 in 1.0 mi SE 9.2 mph - N/A   Mist
10:53 PM 42.1 °F 35.7 °F 42.1 °F 100% 29.58 in 3.0 mi SE 11.5 mph - 0.01 in Rain Light Rain
11:53 PM 42.1 °F 35.7 °F 42.1 °F 100% 29.60 in 7.0 mi SE 11.5 mph - 0.02 in   Overcast